Weather History for Greensboro, NC

Change the Weather History Date:

Sunday, March 23, 2014

  Actual Average Record
Temperature  
Mean Temperature 46 °F 52 °F  
Max Temperature 53 °F 63 °F 89 °F (1907)
Min Temperature 38 °F 41 °F 23 °F (1963)
Degree Days  
Heating Degree Days 19 13  
Month to date heating degree days 476 374  
Since 1 July heating degree days 3453 3229  
Cooling Degree Days 0 0  
Month to date cooling degree days 0 0  
Year to date cooling degree days 0 0  
Moisture  
Dew Point 35 °F    
Average Humidity 64    
Maximum Humidity 86    
Minimum Humidity 41    
Precipitation  
Precipitation 0.17 in 0.12 in 1.72 in (1903)
Month to date precipitation 3.90 2.75  
Year to date precipitation 10.12 8.77  
Snow  
Snow 0.00 in 0.00 in 4.60 in (1981)
Month to date snowfall 4.7 0.7  
Since 1 July snowfall 15.3 7.4  
Snow Depth 0.00 in    
Sea Level Pressure  
Sea Level Pressure 30.01 in    
Wind  
Wind Speed 6 mph (NNE)    
Max Wind Speed 16 mph    
Max Gust Speed 21 mph    
Visibility 9 miles    
Events Rain    
T = Trace of Precipitation, MM = Missing Value Source: NWS Daily Summary

Daily Weather History Graph

Daily Weather History Graph

Search for Another Location

Airport:

Trip Planner

Search our weather history database for the weather conditions in past years. The results will help you decide how hot, cold, wet, or windy it might be!

Date:

Astronomy

Mar. 23, 2014 Rise Set
Actual Time 7:19 AM EDT 7:34 PM EDT
Civil Twilight 6:53 AM EDT 7:59 PM EDT
Nautical Twilight 6:23 AM EDT 8:29 PM EDT
Astronomical Twilight 5:53 AM EDT 9:00 PM EDT
Moon 1:40 AM EDT (3/23) 12:07 PM EDT (3/23)
Length of Visible Light 13h 06m
Length of Day
12h 15m
Waning Gibbous, 55% of the Moon is Illuminated
Mar 23
Waning Gibbous
Mar 23
Last Quarter
Mar 30
New
Apr 7
First Quarter
Apr 15
Full

Hourly Weather History & Observations

Time (EDT) Temp. Windchill Dew Point Humidity Pressure Visibility Wind Dir Wind Speed Gust Speed Precip Events Conditions
12:54 AM 50.0 °F - 37.9 °F 63% 29.95 in 10.0 mi SW 5.8 mph - N/A   Clear
1:54 AM 51.1 °F - 37.9 °F 61% 29.95 in 10.0 mi Calm Calm - N/A   Clear
2:54 AM 51.1 °F - 37.0 °F 59% 29.95 in 10.0 mi Calm Calm - N/A   Clear
3:54 AM 45.0 °F 43.5 °F 37.0 °F 74% 29.94 in 10.0 mi ENE 3.5 mph - N/A   Clear
4:54 AM 48.9 °F - 37.0 °F 64% 29.94 in 10.0 mi NNE 4.6 mph - N/A   Clear
5:54 AM 51.1 °F - 33.1 °F 50% 29.94 in 10.0 mi North 5.8 mph - N/A   Clear
6:54 AM 50.0 °F - 28.9 °F 44% 29.97 in 10.0 mi NNE 6.9 mph - N/A   Scattered Clouds
7:54 AM 50.0 °F - 28.9 °F 44% 29.97 in 10.0 mi NE 11.5 mph - N/A   Mostly Cloudy
8:54 AM 51.1 °F - 28.9 °F 43% 29.97 in 10.0 mi NE 11.5 mph - N/A   Mostly Cloudy
9:54 AM 51.1 °F - 28.9 °F 43% 29.98 in 10.0 mi ENE 15.0 mph - N/A   Overcast
10:54 AM 50.0 °F - 30.9 °F 48% 30.04 in 10.0 mi NNE 8.1 mph - 0.00 in Rain Light Rain
11:54 AM 46.9 °F - 36.0 °F 66% 30.07 in 4.0 mi NNE 5.8 mph - 0.03 in Rain Light Rain
12:54 PM 45.0 °F 39.7 °F 39.0 °F 80% 30.03 in 6.0 mi NE 10.4 mph - 0.10 in Rain Light Rain
1:54 PM 44.1 °F 37.7 °F 39.0 °F 82% 30.01 in 5.0 mi NNE 12.7 mph - 0.03 in Rain Light Rain
2:24 PM 44.6 °F 38.8 °F 39.2 °F 81% 30.01 in 6.0 mi NNE 11.5 mph 16.1 mph 0.01 in Rain Light Rain
2:54 PM 44.1 °F 40.8 °F 39.0 °F 82% 30.01 in 5.0 mi NE 5.8 mph - 0.01 in Rain Light Rain
3:18 PM 42.8 °F 38.6 °F 39.2 °F 87% 30.00 in 8.0 mi ENE 6.9 mph - 0.00 in   Overcast
3:54 PM 43.0 °F 40.3 °F 39.0 °F 86% 30.01 in 8.0 mi North 4.6 mph - 0.00 in   Overcast
4:54 PM 44.1 °F 42.5 °F 39.9 °F 85% 30.01 in 8.0 mi North 3.5 mph - N/A   Overcast
5:54 PM 46.9 °F - 39.9 °F 77% 29.99 in 9.0 mi NE 4.6 mph - N/A   Scattered Clouds
6:54 PM 46.9 °F - 37.0 °F 68% 30.01 in 9.0 mi Calm Calm - N/A   Clear
7:54 PM 45.0 °F - 36.0 °F 71% 30.03 in 9.0 mi Calm Calm - N/A   Clear
8:54 PM 41.0 °F - 37.0 °F 86% 30.06 in 8.0 mi Calm Calm - N/A   Clear
9:54 PM 43.0 °F 36.4 °F 28.9 °F 58% 30.10 in 10.0 mi North 12.7 mph 18.4 mph N/A   Clear
10:54 PM 41.0 °F 38.0 °F 26.1 °F 55% 30.12 in 10.0 mi North 4.6 mph - N/A   Clear
11:54 PM 39.9 °F 35.1 °F 24.1 °F 53% 30.14 in 10.0 mi North 6.9 mph - N/A   Clear